Wiscasset, ME

1:24 PM EST on February 09, 2016 (GMT -0500)
Wiscasset

Weather History for KIWI - January, 2013

Change the Weather History Date:

Friday, January 18, 2013

  Actual Average Record
Temperature  
Mean Temperature 10 °F -  
Max Temperature 17 °F 25 °F 53 °F (2006)
Min Temperature 3 °F 7 °F -15 °F (2003)
Degree Days  
Heating Degree Days 55    
Moisture  
Dew Point -7 °F    
Average Humidity 49    
Maximum Humidity 76    
Minimum Humidity 26    
Precipitation  
Precipitation 0.00 in - - ()
Sea Level Pressure  
Sea Level Pressure 30.30 in    
Wind  
Wind Speed 2 mph (WNW)    
Max Wind Speed 9 mph    
Max Gust Speed 18 mph    
Visibility 10 miles    
Events      
Averages and records for this station are not official NWS values.
T = Trace of Precipitation, MM = Missing Value Source: NWS Daily Summary

Daily Weather History Graph

Daily Weather History Graph

Search for Another Location

Airport or City:

Trip Planner

Search our weather history database for the weather conditions in past years. The results will help you decide how hot, cold, wet, or windy it might be!

Date:

Astronomy

Jan. 18, 2013 Rise Set
Actual Time 7:08 AM EST 4:30 PM EST
Civil Twilight 6:36 AM EST 5:02 PM EST
Nautical Twilight 6:01 AM EST 5:38 PM EST
Astronomical Twilight 5:26 AM EST 6:12 PM EST
Moon 10:27 AM EST (1/18) No Moon Set
Length of Visible Light 10h 26m
Length of Day
9h 22m
Waxing Crescent, 47% of the Moon is Illuminated
Jan 18
Waxing Crescent
Jan 18
First Quarter
Jan 26
Full
Feb 3
Last Quarter
Feb 10
New

Hourly Weather History & Observations

Time (EST) Temp. Windchill Dew Point Humidity Pressure Visibility Wind Dir Wind Speed Gust Speed Precip Events Conditions
12:53 AM 14.0 °F - -5.1 °F 43% 30.16 in 10.0 mi Calm Calm - N/A   Clear
1:53 AM 12.9 °F 5.2 °F -6.0 °F 43% 30.14 in 10.0 mi Variable 4.6 mph - N/A   Clear
2:53 AM 12.9 °F - -5.1 °F 45% 30.16 in 10.0 mi Calm Calm - N/A   Overcast
3:53 AM 12.0 °F 5.9 °F -4.0 °F 49% 30.17 in 10.0 mi Variable 3.5 mph - N/A   Mostly Cloudy
4:53 AM 10.0 °F 3.6 °F -7.1 °F 46% 30.18 in 10.0 mi Variable 3.5 mph - N/A   Clear
5:53 AM 9.0 °F 2.4 °F -7.1 °F 48% 30.20 in 10.0 mi Variable 3.5 mph - N/A   Clear
6:53 AM 7.0 °F - -6.0 °F 55% 30.23 in 10.0 mi Calm Calm - N/A   Clear
7:53 AM 6.1 °F - -7.1 °F 55% 30.27 in 10.0 mi Calm Calm - N/A   Clear
8:53 AM 9.0 °F - -9.0 °F 44% 30.30 in 10.0 mi Calm Calm - N/A   Clear
9:53 AM 10.0 °F 0.4 °F -11.0 °F 38% 30.32 in 10.0 mi NW 5.8 mph - N/A   Clear
10:53 AM 12.9 °F 0.7 °F -16.1 °F 26% 30.31 in 10.0 mi NW 9.2 mph 18.4 mph N/A   Clear
11:53 AM 14.0 °F 5.1 °F -15.0 °F 27% 30.30 in 10.0 mi Variable 5.8 mph 18.4 mph N/A   Clear
12:53 PM 15.1 °F 6.4 °F -14.1 °F 27% 30.31 in 10.0 mi Variable 5.8 mph - N/A   Clear
1:53 PM 17.1 °F 11.7 °F -11.9 °F 27% 30.32 in 10.0 mi Variable 3.5 mph - N/A   Clear
2:53 PM 17.1 °F 8.7 °F -11.9 °F 27% 30.34 in 10.0 mi Variable 5.8 mph - N/A   Clear
3:53 PM 16.0 °F 10.4 °F -11.0 °F 30% 30.36 in 10.0 mi WNW 3.5 mph - N/A   Clear
4:53 PM 12.0 °F - -5.1 °F 46% 30.35 in 10.0 mi Calm Calm - N/A   Clear
5:53 PM 8.1 °F - -2.9 °F 61% 30.38 in 10.0 mi Calm Calm - N/A   Clear
6:53 PM 6.1 °F - -2.9 °F 67% 30.39 in 8.0 mi Calm Calm - N/A   Clear
7:53 PM 3.9 °F - -2.9 °F 73% 30.40 in 10.0 mi Calm Calm - N/A   Clear
8:53 PM 3.9 °F - -2.0 °F 76% 30.42 in 10.0 mi Calm Calm - N/A   Clear
9:53 PM 3.9 °F - -2.0 °F 76% 30.41 in 10.0 mi Calm Calm - N/A   Clear
10:53 PM 5.0 °F - -2.0 °F 73% 30.40 in 10.0 mi Calm Calm - N/A   Clear
11:53 PM 5.0 °F - -2.0 °F 73% 30.38 in 10.0 mi Calm Calm - N/A   Mostly Cloudy